Regional Weather Roundup
Issued by NWS Upton, NY

Current Version | Previous Version | Text Only | Print | Product List | Glossary Off
Versions: 1 2 3 4 5 6 7 8 9 10 11 12 13 14 15 16 17 18 19 20 21 22 23 24 25 26 27 28 29 30 31 32 33 34 35 36 37 38 39 40 41 42 43 44 45 46 47 48 49 50
000 ASUS41 KOKX 262004 RWROKX REGIONAL WEATHER ROUNDUP NATIONAL WEATHER SERVICE NEW YORK NY 400 PM EDT MON SEP 26 2016 NOTE: "FAIR" INDICATES FEW OR NO CLOUDS BELOW 12,000 FEET WITH NO SIGNIFICANT WEATHER AND/OR OBSTRUCTIONS TO VISIBILITY. NYZ071-072-176-178-NJZ106-104-262100- NEW YORK CITY METRO AREA CITY SKY/WX TMP DP RH WIND PRES REMARKS Central Park MOSUNNY 70 51 51 S7G20 30.11F LaGuardia APRT PTSUNNY 71 51 49 S16 30.08F Kennedy INTL PTSUNNY 70 50 49 S16 30.10F Newark/Liberty PTSUNNY 72 51 47 SE13 30.07F Bronx Bot Gard N/A 70 50 49 S8 30.10S Wall St Helipt PTCLDY 73 54 49 S10 30.09F Teterboro SUNNY 72 49 44 S14 30.06F $$ NYZ177-179-078>081-262100- LONG ISLAND NEW YORK CITY SKY/WX TMP DP RH WIND PRES REMARKS Farmingdale MOSUNNY 70 51 51 S15 30.11F MacArthur/ISP PTSUNNY 68 49 50 S8 30.11F Shirley PTSUNNY 68 50 52 S12 30.13F Riverhead NOT AVBL Westhampton MOSUNNY 67 45 45 S8 30.15F Southampton N/A 68 50 52 S8 30.10F Bridgehampton N/A 68 50 52 S2 30.00S East Hampton FAIR 65 47 52 S8 30.13F Montauk N/A 66 48 52 VRB3 30.15F $$ NYZ052-065-067-262100- HUDSON VALLEY CITY SKY/WX TMP DP RH WIND PRES REMARKS White Plains MOSUNNY 70 49 47 SE8 30.08F Newburgh PTSUNNY 70 50 49 SW12G18 30.08F Montgomery CLOUDY 71 50 47 S10 30.05F Poughkeepsie PTSUNNY 70 46 42 SE9 30.05F Albany PTSUNNY 66 44 45 S13G20 30.04F $$ NJZ001-105-106-008-010-013-015-019>022-104-262100- NEW JERSEY CITY SKY/WX TMP DP RH WIND PRES REMARKS Newark/Liberty PTSUNNY 72 51 47 SE13 30.07F Teterboro SUNNY 72 49 44 S14 30.06F Caldwell CLOUDY 72 49 44 VRB5 30.07F Morristown CLOUDY 72 50 46 S9 30.07F Somerville CLOUDY 71 49 45 S6 30.04F Linden NOT AVBL Sussex CLOUDY 69 52 54 S8 30.06F Abdover N/A 67 52 58 SW5 30.07F Trenton CLOUDY 71 49 45 S12 30.06F Millville CLOUDY 71 53 52 S8 30.08F Atlantic City CLOUDY 70 50 49 S12G20 30.09F Wrightstown CLOUDY 72 49 44 S8 30.05F Toms River PTSUNNY 70 50 49 S9 30.09 Belmar SUNNY 71 49 45 SE10G16 30.10F $$ PAZ047>061-062-071-262100- EASTERN PENNSYLVANIA CITY SKY/WX TMP DP RH WIND PRES REMARKS Philadelphia CLOUDY 71 49 45 S10 30.07F Allentown CLOUDY 68 53 58 S9 30.06F Scranton CLOUDY 64 52 64 S10G17 30.04F $$ CTZ002-004>006-009-010-012-RIZ004-006-007-MAZ004-011-015-262100- SOUTHERN NEW ENGLAND IN CT CITY SKY/WX TMP DP RH WIND PRES REMARKS Bradley INTL PTSUNNY 67 45 45 SW13 30.10F Hartford PTSUNNY 67 48 50 S9 30.11F Danbury SUNNY 68 46 45 VRB7 30.10F Wtrbury/Oxford PTSUNNY 66 45 45 S12G17 30.13F Bridgeport MOSUNNY 70 50 49 S12 30.11F Meriden MOSUNNY 68 46 45 S5 30.11F New Haven PTSUNNY 68 48 48 S12 30.12F Chester FAIR 64 48 55 SE8G14 30.13F Groton MOSUNNY 67 50 54 S12 30.13F Wilimantic MOSUNNY 69 45 41 SW10G22 30.12F IN RI CITY SKY/WX TMP DP RH WIND PRES REMARKS Providence PTSUNNY 65 45 48 S16 30.13F Block Island SUNNY 64 46 52 S8 30.15F Westerly SUNNY 66 44 45 VRB6 30.15F IN MA CITY SKY/WX TMP DP RH WIND PRES REMARKS Boston PTSUNNY 63 45 51 E16 30.11F Worcester SUNNY 63 38 39 SW16 30.11F Westfield MOSUNNY 70 42 36 S10G21 30.08F Provincetown SUNNY 62 41 46 VRB3 30.14F Nantucket SUNNY 62 42 47 SW10 30.15F $$ ANZ330-335-338-340-345-350-353-355-262100- COASTAL MARINE OBSERVATIONS STATION/POSITION TIME SKY/WX TEMP WIND PRES VSBY WAVE AIR SEA DIR/SP/G HT/PER (UTC) (F) (DEG/KT/KT) (MB) (MI) (FT/S) NY HARB ENTRANCE 1850 67 72 190/ 14/ 17 1019.9 2/ 9 20S FIRE ISLAND 1850 66 69 190/ 12/ 14 1020.2 2/10 GREAT SOUTH BAY 1930 67 69 210/ 12/ 16 N/A 23 SSW MONTAUK P 1850 63 69 170/ 8/ 10 1021.5 2/ 9 15 E BARNEGAT LI 1930 70 N/A 2/10 HUDSON CANYON 1850 67 70 1020.9 2/ 9 KINGS POINT 1930 68 73 1019.1 EXECUTION ROCKS 1945 70 190/ 12/ 16 N/A CENTRAL LI SOUND 1915 66 72 190/ 10/ 14 N/A 1/ 2 EASTERN LI SOUND NOT AVBL ROBBINS REEF 1930 67 160/ 20/ 22 1019.0 $$ >>>>>>>>>>>>>>>>>>>>>>>>>>>> KEY <<<<<<<<<<<<<<<<<<<<<<<<<<< > < > SKY/WX - Sky Condition/Present Weather < > TMP - Temperature in Fahrenheit < > DP - Dew Point in Fahrenheit < > RH - Relative Humidity in Percent < > WIND - Direction (from) and Speed in MPH < > PRES - Mean Sea Level Pressure (inches of Hg) < > WCI - Wind Chill Index < > VSB - VISIBILITY IN MILES < > HX - HEAT INDEX < > TC - TEMPERATURE IN CELSIUS < > VRB - VARIABLE WIND DIRECTION < > < >>>>>>>>>>>>>>>>>>>>>>>>>>>> KEY <<<<<<<<<<<<<<<<<<<<<<<<<<<

USA.gov is the U.S. government's official web portal to all federal, state and local government web resources and services.